| time (UTC) | temp F | wind direction | speed MPH | gust MPH | rain 1hr in | rain 24hr in | rain mn in | humidity % | barometer mb |
| 20260508192046 | 56 | 192 | 0.0 | 0.0 | 0.00 | 0.00 | 0.08 | 50 | 1009.7 |
| 20260508191546 | 56 | 178 | 0.0 | 0.0 | 0.00 | 0.00 | 0.08 | 51 | 1009.8 |
| 20260508191044 | 55 | 288 | 0.0 | 0.0 | 0.00 | 0.00 | 0.08 | 50 | 1009.8 |
| 20260508190544 | 55 | 180 | 0.0 | 0.0 | 0.00 | 0.00 | 0.08 | 53 | 1009.9 |
| 20260508190044 | 55 | 173 | 0.0 | 0.0 | 0.00 | 0.00 | 0.08 | 54 | 1010.0 |
| 20260508185542 | 55 | 180 | 0.0 | 0.0 | 0.00 | 0.00 | 0.08 | 53 | 1009.9 |
| 20260508185042 | 55 | 205 | 0.0 | 0.0 | 0.00 | 0.00 | 0.08 | 55 | 1010.0 |
| 20260508184550 | 54 | 273 | 0.0 | 0.0 | 0.00 | 0.00 | 0.08 | 57 | 1010.0 |
| 20260508184041 | 54 | 227 | 0.0 | 0.0 | 0.00 | 0.00 | 0.08 | 54 | 1010.0 |
| 20260508183542 | 54 | 275 | 0.0 | 0.0 | 0.00 | 0.00 | 0.08 | 55 | 1010.0 |
| 20260508183042 | 54 | 155 | 0.0 | 0.0 | 0.00 | 0.00 | 0.08 | 53 | 1010.1 |
| 20260508182541 | 54 | 247 | 0.0 | 0.0 | 0.00 | 0.00 | 0.08 | 56 | 1010.1 |
| 20260508182040 | 54 | 189 | 0.0 | 0.0 | 0.00 | 0.00 | 0.08 | 56 | 1010.1 |
| 20260508181552 | 54 | 165 | 0.0 | 0.0 | 0.00 | 0.00 | 0.08 | 56 | 1010.1 |
| 20260508181043 | 54 | 234 | 0.0 | 0.0 | 0.00 | 0.00 | 0.08 | 58 | 1010.0 |
| 20260508180540 | 54 | 159 | 0.0 | 0.0 | 0.00 | 0.00 | 0.08 | 58 | 1010.1 |
| 20260508180043 | 53 | 163 | 0.0 | 0.0 | 0.00 | 0.00 | 0.08 | 58 | 1010.1 |
| 20260508175540 | 54 | 182 | 0.0 | 0.0 | 0.00 | 0.00 | 0.08 | 58 | 1010.1 |
| 20260508175039 | 54 | 262 | 0.0 | 0.0 | 0.00 | 0.00 | 0.08 | 57 | 1010.1 |
| 20260508174539 | 54 | 192 | 0.0 | 0.0 | 0.00 | 0.00 | 0.08 | 55 | 1010.1 |
| 20260508174038 | 54 | 284 | 0.0 | 0.0 | 0.00 | 0.00 | 0.08 | 56 | 1010.2 |
| 20260508173538 | 53 | 267 | 0.0 | 0.0 | 0.00 | 0.00 | 0.08 | 56 | 1010.2 |
| 20260508173038 | 53 | 155 | 0.0 | 0.0 | 0.00 | 0.00 | 0.08 | 56 | 1010.4 |
| 20260508172538 | 53 | 200 | 0.0 | 0.0 | 0.00 | 0.00 | 0.08 | 55 | 1010.5 |
| 20260508172039 | 54 | 158 | 0.0 | 0.0 | 0.00 | 0.00 | 0.08 | 57 | 1010.4 |
| 20260508171543 | 53 | 225 | 0.0 | 0.0 | 0.00 | 0.00 | 0.08 | 57 | 1010.4 |
| 20260508171039 | 53 | 156 | 0.0 | 0.0 | 0.00 | 0.00 | 0.08 | 56 | 1010.4 |
| 20260508170537 | 53 | 244 | 0.0 | 0.0 | 0.00 | 0.00 | 0.08 | 58 | 1010.4 |
| 20260508170041 | 53 | 207 | 0.0 | 0.0 | 0.00 | 0.00 | 0.08 | 60 | 1010.5 |
| 20260508165536 | 53 | 239 | 0.0 | 0.0 | 0.00 | 0.00 | 0.08 | 54 | 1010.4 |
| 20260508165036 | 54 | 277 | 0.0 | 0.0 | 0.00 | 0.00 | 0.08 | 58 | 1010.4 |
| 20260508164535 | 53 | 330 | 0.0 | 0.0 | 0.00 | 0.00 | 0.08 | 57 | 1010.5 |
| 20260508164036 | 53 | 249 | 0.0 | 0.0 | 0.00 | 0.00 | 0.08 | 57 | 1010.6 |
| 20260508163536 | 53 | 234 | 0.0 | 0.0 | 0.00 | 0.00 | 0.08 | 57 | 1010.6 |
| 20260508163040 | 52 | 234 | 0.0 | 0.0 | 0.00 | 0.00 | 0.08 | 59 | 1010.8 |
| 20260508162535 | 52 | 290 | 0.0 | 0.0 | 0.00 | 0.00 | 0.08 | 60 | 1010.9 |
| 20260508162035 | 52 | 220 | 0.0 | 0.0 | 0.00 | 0.00 | 0.08 | 61 | 1010.9 |
| 20260508161536 | 52 | 257 | 0.0 | 0.0 | 0.00 | 0.00 | 0.08 | 58 | 1011.0 |
| 20260508161033 | 53 | 254 | 0.0 | 0.0 | 0.00 | 0.00 | 0.08 | 62 | 1010.9 |
| 20260508160533 | 52 | 317 | 0.0 | 0.0 | 0.00 | 0.00 | 0.08 | 64 | 1011.0 |
| 20260508160053 | 51 | 300 | 0.0 | 0.0 | 0.00 | 0.00 | 0.08 | 65 | 1011.0 |
| 20260508155532 | 51 | 243 | 0.0 | 0.0 | 0.00 | 0.00 | 0.08 | 67 | 1011.1 |
| 20260508155031 | 51 | 219 | 0.0 | 0.0 | 0.00 | 0.00 | 0.08 | 66 | 1011.0 |
| 20260508154533 | 52 | 237 | 0.0 | 0.0 | 0.00 | 0.00 | 0.08 | 67 | 1011.1 |
| 20260508154031 | 51 | 323 | 0.0 | 0.0 | 0.00 | 0.00 | 0.08 | 66 | 1011.1 |
| 20260508153530 | 51 | 288 | 0.0 | 0.0 | 0.00 | 0.00 | 0.08 | 65 | 1011.1 |
| 20260508153030 | 51 | 324 | 0.0 | 0.0 | 0.00 | 0.00 | 0.08 | 69 | 1011.3 |
| 20260508152527 | 50 | 282 | 0.0 | 0.0 | 0.00 | 0.00 | 0.08 | 67 | 1011.3 |
| 20260508152026 | 50 | 319 | 0.0 | 0.0 | 0.00 | 0.00 | 0.08 | 71 | 1011.3 |
| 20260508151525 | 49 | 255 | 0.0 | 0.0 | 0.00 | 0.00 | 0.08 | 70 | 1011.4 |
| 20260508151024 | 49 | 305 | 0.0 | 0.0 | 0.00 | 0.00 | 0.08 | 73 | 1011.4 |
| 20260508150522 | 48 | 271 | 0.0 | 0.0 | 0.00 | 0.00 | 0.08 | 76 | 1011.4 |
| 20260508150022 | 48 | 269 | 0.0 | 0.0 | 0.00 | 0.00 | 0.08 | 78 | 1011.5 |
| 20260508145522 | 47 | 269 | 0.0 | 0.0 | 0.00 | 0.00 | 0.08 | 77 | 1011.4 |
| 20260508145022 | 47 | 262 | 0.0 | 0.0 | 0.00 | 0.00 | 0.08 | 79 | 1011.4 |
| 20260508144518 | 47 | 262 | 0.0 | 0.0 | 0.00 | 0.00 | 0.08 | 79 | 1011.4 |
| 20260508144018 | 46 | 325 | 0.0 | 0.0 | 0.00 | 0.00 | 0.08 | 80 | 1011.4 |
| 20260508143516 | 46 | 263 | 0.0 | 0.0 | 0.00 | 0.00 | 0.08 | 80 | 1011.4 |
| 20260508143019 | 46 | 258 | 0.0 | 0.0 | 0.00 | 0.00 | 0.08 | 82 | 1011.4 |
| 20260508142519 | 46 | 269 | 0.0 | 0.0 | 0.00 | 0.00 | 0.08 | 83 | 1011.3 |
| 20260508142015 | 45 | 246 | 0.0 | 0.0 | 0.00 | 0.00 | 0.08 | 83 | 1011.3 |
| 20260508141517 | 46 | 246 | 0.0 | 0.0 | 0.00 | 0.00 | 0.08 | 84 | 1011.3 |
| 20260508141012 | 45 | 304 | 0.0 | 0.0 | 0.00 | 0.00 | 0.08 | 87 | 1011.2 |
| 20260508140513 | 44 | 267 | 0.0 | 0.0 | 0.00 | 0.00 | 0.08 | 86 | 1011.2 |
| 20260508140017 | 44 | 190 | 0.0 | 0.0 | 0.00 | 0.00 | 0.08 | 87 | 1011.4 |
| 20260508135514 | 44 | 184 | 0.0 | 0.0 | 0.00 | 0.00 | 0.08 | 88 | 1011.5 |
| 20260508135011 | 44 | 184 | 0.0 | 0.0 | 0.00 | 0.00 | 0.08 | 89 | 1011.4 |
| 20260508134526 | 43 | 184 | 0.0 | 0.0 | 0.00 | 0.00 | 0.08 | 89 | 1011.5 |
| 20260508134013 | 43 | 184 | 0.0 | 0.0 | 0.00 | 0.00 | 0.08 | 89 | 1011.4 |
| 20260508133510 | 43 | 188 | 0.0 | 0.0 | 0.00 | 0.00 | 0.08 | 89 | 1011.4 |
| 20260508133016 | 43 | 188 | 0.0 | 0.0 | 0.00 | 0.00 | 0.08 | 90 | 1011.5 |
| 20260508132510 | 42 | 188 | 0.0 | 0.0 | 0.00 | 0.00 | 0.08 | 89 | 1011.4 |
| 20260508132010 | 42 | 188 | 0.0 | 0.0 | 0.00 | 0.00 | 0.08 | 89 | 1011.4 |
| 20260508131510 | 41 | 188 | 0.0 | 0.0 | 0.00 | 0.00 | 0.08 | 89 | 1011.4 |
| 20260508131009 | 42 | 190 | 0.0 | 0.0 | 0.00 | 0.00 | 0.08 | 89 | 1011.4 |
| 20260508130509 | 41 | 219 | 0.0 | 0.0 | 0.00 | 0.00 | 0.08 | 89 | 1011.4 |
| 20260508130008 | 41 | 220 | 0.0 | 0.0 | 0.00 | 0.00 | 0.08 | 89 | 1011.3 |
| 20260508125509 | 41 | 220 | 0.0 | 0.0 | 0.00 | 0.00 | 0.08 | 89 | 1011.2 |
| 20260508125008 | 41 | 220 | 0.0 | 0.0 | 0.00 | 0.00 | 0.08 | 89 | 1011.2 |
| 20260508124511 | 41 | 221 | 0.0 | 0.0 | 0.00 | 0.00 | 0.08 | 89 | 1011.2 |
| 20260508124008 | 41 | 314 | 0.0 | 0.0 | 0.00 | 0.00 | 0.08 | 89 | 1011.3 |
| 20260508123508 | 41 | 317 | 0.0 | 0.0 | 0.00 | 0.00 | 0.08 | 89 | 1011.2 |
| 20260508123012 | 41 | 317 | 0.0 | 0.0 | 0.00 | 0.00 | 0.08 | 88 | 1011.2 |
| 20260508122511 | 41 | 317 | 0.0 | 0.0 | 0.00 | 0.00 | 0.08 | 88 | 1011.1 |
| 20260508122008 | 41 | 317 | 0.0 | 0.0 | 0.00 | 0.00 | 0.08 | 88 | 1011.2 |
| 20260508121523 | 41 | 317 | 0.0 | 0.0 | 0.00 | 0.00 | 0.08 | 88 | 1011.2 |
| 20260508121007 | 41 | 317 | 0.0 | 0.0 | 0.00 | 0.00 | 0.07 | 88 | 1011.2 |
| 20260508120512 | 41 | 317 | 0.0 | 0.0 | 0.00 | 0.00 | 0.07 | 88 | 1011.2 |
| 20260508120007 | 41 | 317 | 0.0 | 0.0 | 0.00 | 0.00 | 0.07 | 88 | 1011.2 |
| 20260508115506 | 41 | 317 | 0.0 | 0.0 | 0.00 | 0.00 | 0.07 | 88 | 1011.1 |
| 20260508115006 | 41 | 317 | 0.0 | 0.0 | 0.00 | 0.00 | 0.07 | 88 | 1011.1 |
| 20260508114507 | 41 | 317 | 0.0 | 0.0 | 0.00 | 0.00 | 0.07 | 87 | 1011.2 |
| 20260508114007 | 41 | 317 | 0.0 | 0.0 | 0.00 | 0.00 | 0.07 | 87 | 1011.4 |
| 20260508113507 | 41 | 257 | 0.0 | 0.0 | 0.00 | 0.00 | 0.06 | 87 | 1011.3 |
| 20260508113006 | 41 | 295 | 0.0 | 0.0 | 0.00 | 0.00 | 0.06 | 87 | 1011.3 |
| 20260508112505 | 41 | 263 | 0.0 | 0.0 | 0.00 | 0.00 | 0.06 | 87 | 1011.4 |
| 20260508112004 | 41 | 264 | 0.0 | 0.0 | 0.00 | 0.00 | 0.05 | 86 | 1011.2 |
| 20260508111504 | 42 | 286 | 0.0 | 0.0 | 0.00 | 0.00 | 0.04 | 86 | 1011.0 |
| 20260508111003 | 42 | 277 | 0.0 | 0.0 | 0.00 | 0.00 | 0.04 | 87 | 1010.9 |
| 20260508110502 | 42 | 284 | 0.0 | 0.0 | 0.00 | 0.00 | 0.03 | 88 | 1010.9 |
| 20260508110002 | 42 | 239 | 0.0 | 0.0 | 0.00 | 0.00 | 0.02 | 87 | 1010.7 |
| 20260508105504 | 42 | 239 | 0.0 | 0.0 | 0.00 | 0.00 | 0.02 | 87 | 1010.4 |
| 20260508105002 | 42 | 239 | 0.0 | 0.0 | 0.00 | 0.00 | 0.02 | 87 | 1010.3 |
| 20260508104502 | 42 | 239 | 0.0 | 0.0 | 0.00 | 0.00 | 0.02 | 87 | 1010.2 |
| 20260508104002 | 42 | 239 | 0.0 | 0.0 | 0.00 | 0.00 | 0.02 | 87 | 1010.0 |
| 20260508103502 | 42 | 239 | 0.0 | 0.0 | 0.00 | 0.00 | 0.02 | 87 | 1010.1 |
| 20260508103005 | 42 | 239 | 0.0 | 0.0 | 0.00 | 0.00 | 0.02 | 86 | 1010.1 |
| 20260508102502 | 42 | 239 | 0.0 | 0.0 | 0.00 | 0.00 | 0.02 | 86 | 1010.1 |
| 20260508102002 | 42 | 236 | 0.0 | 0.0 | 0.00 | 0.00 | 0.02 | 87 | 1010.2 |
| 20260508101502 | 42 | 268 | 0.0 | 0.0 | 0.00 | 0.00 | 0.02 | 87 | 1010.1 |
| 20260508101000 | 43 | 268 | 0.0 | 0.0 | 0.00 | 0.00 | 0.02 | 87 | 1010.0 |
| 20260508100600 | 43 | 271 | 0.0 | 0.0 | 0.00 | 0.00 | 0.02 | 88 | 1009.9 |
| 20260508100100 | 43 | 242 | 0.0 | 0.0 | 0.00 | 0.00 | 0.02 | 88 | 1009.9 |
| 20260508095600 | 43 | 242 | 0.0 | 0.0 | 0.00 | 0.00 | 0.01 | 88 | 1009.9 |
| 20260508095100 | 43 | 242 | 0.0 | 0.0 | 0.00 | 0.00 | 0.01 | 88 | 1009.9 |
| 20260508094610 | 43 | 242 | 0.0 | 0.0 | 0.00 | 0.00 | 0.01 | 88 | 1010.0 |
| 20260508094100 | 43 | 242 | 0.0 | 0.0 | 0.00 | 0.00 | 0.01 | 88 | 1009.9 |
| 20260508093600 | 43 | 242 | 0.0 | 0.0 | 0.00 | 0.00 | 0.01 | 88 | 1009.8 |
| 20260508093100 | 43 | 242 | 0.0 | 0.0 | 0.00 | 0.00 | 0.01 | 88 | 1009.6 |
| 20260508092600 | 43 | 242 | 0.0 | 0.0 | 0.00 | 0.00 | 0.00 | 88 | 1009.7 |
| 20260508092058 | 43 | 242 | 0.0 | 0.0 | 0.00 | 0.00 | 0.00 | 88 | 1010.1 |
| 20260508091605 | 43 | 242 | 0.0 | 0.0 | 0.00 | 0.00 | 0.00 | 89 | 1010.2 |
| 20260508091057 | 43 | 242 | 0.0 | 0.0 | 0.00 | 0.00 | 0.00 | 89 | 1010.1 |
| 20260508090557 | 43 | 242 | 0.0 | 0.0 | 0.00 | 0.00 | 0.00 | 89 | 1010.0 |
| 20260508090058 | 43 | 242 | 0.0 | 0.0 | 0.00 | 0.00 | 0.00 | 89 | 1010.0 |
| 20260508085556 | 43 | 242 | 0.0 | 0.0 | 0.00 | 0.00 | 0.00 | 90 | 1009.9 |
| 20260508085056 | 43 | 242 | 0.0 | 0.0 | 0.00 | 0.00 | 0.00 | 90 | 1010.1 |
| 20260508084556 | 43 | 242 | 0.0 | 0.0 | 0.00 | 0.00 | 0.00 | 91 | 1010.1 |
| 20260508084056 | 43 | 234 | 0.0 | 0.0 | 0.00 | 0.00 | 0.00 | 91 | 1010.1 |
| 20260508083555 | 43 | 234 | 0.0 | 0.0 | 0.00 | 0.00 | 0.00 | 92 | 1010.2 |
| 20260508083141 | 43 | 210 | 0.0 | 0.0 | 0.00 | 0.00 | 0.00 | 92 | 1010.3 |
| 20260508082556 | 44 | 221 | 0.0 | 0.0 | 0.00 | 0.00 | 0.00 | 92 | 1010.2 |
| 20260508082055 | 44 | 227 | 0.0 | 0.0 | 0.00 | 0.00 | 0.00 | 92 | 1010.2 |
| 20260508081557 | 44 | 230 | 0.0 | 0.0 | 0.00 | 0.00 | 0.00 | 92 | 1010.3 |
| 20260508081054 | 43 | 220 | 0.0 | 0.0 | 0.00 | 0.00 | 0.00 | 92 | 1010.3 |
| 20260508080555 | 43 | 219 | 0.0 | 0.0 | 0.00 | 0.00 | 0.00 | 92 | 1010.2 |
| 20260508080058 | 43 | 205 | 0.0 | 0.0 | 0.00 | 0.00 | 0.00 | 92 | 1010.2 |
| 20260508075551 | 43 | 213 | 0.0 | 0.0 | 0.00 | 0.00 | 0.00 | 92 | 1010.2 |
| 20260508075051 | 43 | 295 | 0.0 | 0.0 | 0.00 | 0.00 | 0.00 | 92 | 1010.1 |
| 20260508074551 | 42 | 329 | 0.0 | 0.0 | 0.00 | 0.00 | 0.00 | 93 | 1010.2 |
| 20260508074050 | 42 | 329 | 0.0 | 0.0 | 0.00 | 0.00 | 0.00 | 93 | 1010.2 |
| 20260508073551 | 42 | 329 | 0.0 | 0.0 | 0.00 | 0.00 | 0.00 | 92 | 1010.1 |
| 20260508073057 | 42 | 329 | 0.0 | 0.0 | 0.00 | 0.00 | 0.00 | 92 | 1010.1 |
| 20260508072548 | 42 | 329 | 0.0 | 0.0 | 0.00 | 0.00 | 0.00 | 92 | 1010.2 |
| 20260508072048 | 42 | 329 | 0.0 | 0.0 | 0.00 | 0.00 | 0.00 | 92 | 1010.2 |
| 20260508071551 | 42 | 329 | 0.0 | 0.0 | 0.00 | 0.00 | 0.00 | 92 | 1010.2 |
| 20260508071046 | 42 | 329 | 0.0 | 0.0 | 0.00 | 0.00 | 0.00 | 92 | 1010.2 |
| 20260508070546 | 41 | 329 | 0.0 | 0.0 | 0.00 | 0.00 | 0.00 | 92 | 1010.1 |
| 20260508070045 | 41 | 329 | 0.0 | 0.0 | 0.00 | 0.00 | 0.00 | 92 | 1010.2 |
| 20260508065544 | 41 | 329 | 0.0 | 0.0 | 0.00 | 0.00 | 0.00 | 92 | 1010.2 |
| 20260508065043 | 40 | 329 | 0.0 | 0.0 | 0.00 | 0.00 | 0.00 | 92 | 1010.3 |
| 20260508064603 | 40 | 329 | 0.0 | 0.0 | 0.00 | 0.00 | 0.00 | 92 | 1010.4 |
| 20260508064043 | 40 | 329 | 0.0 | 0.0 | 0.00 | 0.00 | 0.00 | 92 | 1010.4 |
| 20260508063543 | 40 | 329 | 0.0 | 0.0 | 0.00 | 0.00 | 0.00 | 91 | 1010.4 |
| 20260508063046 | 40 | 329 | 0.0 | 0.0 | 0.00 | 0.00 | 0.00 | 91 | 1010.3 |
| 20260508062541 | 40 | 329 | 0.0 | 0.0 | 0.00 | 0.00 | 0.00 | 91 | 1010.4 |
| 20260508062041 | 40 | 329 | 0.0 | 0.0 | 0.00 | 0.00 | 0.00 | 91 | 1010.4 |
| 20260508061543 | 40 | 329 | 0.0 | 0.0 | 0.00 | 0.00 | 0.00 | 91 | 1010.4 |
| 20260508061041 | 40 | 329 | 0.0 | 0.0 | 0.00 | 0.00 | 0.00 | 91 | 1010.4 |
| 20260508060544 | 40 | 329 | 0.0 | 0.0 | 0.00 | 0.00 | 0.00 | 91 | 1010.5 |
| 20260508060041 | 40 | 329 | 0.0 | 0.0 | 0.00 | 0.00 | 0.00 | 91 | 1010.5 |
| 20260508055540 | 40 | 329 | 0.0 | 0.0 | 0.00 | 0.00 | 0.00 | 91 | 1010.6 |
| 20260508055040 | 40 | 329 | 0.0 | 0.0 | 0.00 | 0.00 | 0.00 | 90 | 1010.4 |
| 20260508054540 | 39 | 329 | 0.0 | 0.0 | 0.00 | 0.00 | 0.00 | 90 | 1010.4 |
| 20260508054043 | 39 | 329 | 0.0 | 0.0 | 0.00 | 0.00 | 0.00 | 90 | 1010.6 |
| 20260508053539 | 39 | 329 | 0.0 | 0.0 | 0.00 | 0.00 | 0.00 | 90 | 1010.7 |
| 20260508053039 | 39 | 329 | 0.0 | 0.0 | 0.00 | 0.00 | 0.00 | 90 | 1010.8 |
| 20260508052539 | 39 | 329 | 0.0 | 0.0 | 0.00 | 0.00 | 0.00 | 90 | 1010.4 |
| 20260508052037 | 39 | 329 | 0.0 | 0.0 | 0.00 | 0.00 | 0.00 | 90 | 1010.6 |
| 20260508051537 | 39 | 329 | 0.0 | 0.0 | 0.00 | 0.00 | 0.00 | 90 | 1010.7 |
| 20260508051037 | 39 | 329 | 0.0 | 0.0 | 0.00 | 0.00 | 0.00 | 90 | 1010.7 |
| 20260508050537 | 39 | 329 | 0.0 | 0.0 | 0.00 | 0.00 | 0.00 | 90 | 1010.7 |
| 20260508050044 | 39 | 329 | 0.0 | 0.0 | 0.00 | 0.00 | 0.00 | 90 | 1010.7 |
| 20260508045535 | 39 | 329 | 0.0 | 0.0 | 0.00 | 0.00 | 0.00 | 89 | 1010.8 |
| 20260508045035 | 39 | 329 | 0.0 | 0.0 | 0.00 | 0.00 | 0.00 | 89 | 1010.9 |
| 20260508044534 | 40 | 329 | 0.0 | 0.0 | 0.00 | 0.00 | 0.00 | 89 | 1010.9 |
| 20260508044035 | 40 | 329 | 0.0 | 0.0 | 0.00 | 0.00 | 0.00 | 89 | 1010.9 |
| 20260508043533 | 40 | 329 | 0.0 | 0.0 | 0.00 | 0.00 | 0.00 | 89 | 1010.8 |
| 20260508043036 | 40 | 329 | 0.0 | 0.0 | 0.00 | 0.00 | 0.00 | 89 | 1010.8 |
| 20260508042532 | 40 | 329 | 0.0 | 0.0 | 0.00 | 0.00 | 0.00 | 89 | 1010.7 |
| 20260508042031 | 40 | 329 | 0.0 | 0.0 | 0.00 | 0.00 | 0.00 | 89 | 1010.8 |
| 20260508041531 | 40 | 329 | 0.0 | 0.0 | 0.00 | 0.00 | 0.00 | 89 | 1010.7 |
| 20260508041029 | 41 | 329 | 0.0 | 0.0 | 0.00 | 0.00 | 0.00 | 89 | 1010.8 |
| 20260508040529 | 41 | 329 | 0.0 | 0.0 | 0.00 | 0.00 | 0.00 | 89 | 1010.7 |
| 20260508040029 | 41 | 329 | 0.0 | 0.0 | 0.00 | 0.00 | 0.00 | 89 | 1010.7 |
| 20260508035528 | 41 | 329 | 0.0 | 0.0 | 0.00 | 0.00 | 0.08 | 88 | 1010.7 |
| 20260508035029 | 41 | 329 | 0.0 | 0.0 | 0.00 | 0.00 | 0.08 | 88 | 1010.8 |
| 20260508034528 | 41 | 329 | 0.0 | 0.0 | 0.00 | 0.00 | 0.08 | 88 | 1010.8 |
| 20260508034028 | 41 | 329 | 0.0 | 0.0 | 0.00 | 0.00 | 0.08 | 88 | 1010.8 |
| 20260508033527 | 41 | 329 | 0.0 | 0.0 | 0.00 | 0.00 | 0.08 | 88 | 1010.8 |
| 20260508033027 | 41 | 329 | 0.0 | 0.0 | 0.00 | 0.00 | 0.08 | 88 | 1010.8 |
| 20260508032528 | 42 | 329 | 0.0 | 0.0 | 0.00 | 0.00 | 0.08 | 88 | 1010.8 |
| 20260508032027 | 42 | 329 | 0.0 | 0.0 | 0.00 | 0.00 | 0.08 | 87 | 1010.7 |
| 20260508031528 | 42 | 329 | 0.0 | 0.0 | 0.00 | 0.00 | 0.08 | 87 | 1010.8 |
| 20260508031026 | 42 | 329 | 0.0 | 0.0 | 0.00 | 0.00 | 0.08 | 87 | 1010.6 |
| 20260508030527 | 42 | 329 | 0.0 | 0.0 | 0.00 | 0.00 | 0.08 | 87 | 1010.6 |
| 20260508030027 | 42 | 329 | 0.0 | 0.0 | 0.00 | 0.00 | 0.08 | 87 | 1010.7 |
| 20260508025526 | 42 | 329 | 0.0 | 0.0 | 0.00 | 0.00 | 0.08 | 87 | 1010.6 |
| 20260508025031 | 42 | 329 | 0.0 | 0.0 | 0.00 | 0.00 | 0.08 | 86 | 1010.6 |
| 20260508024529 | 43 | 329 | 0.0 | 0.0 | 0.00 | 0.00 | 0.08 | 86 | 1010.5 |
| 20260508024026 | 43 | 329 | 0.0 | 0.0 | 0.00 | 0.00 | 0.08 | 86 | 1010.5 |
| 20260508023526 | 43 | 329 | 0.0 | 0.0 | 0.00 | 0.00 | 0.08 | 86 | 1010.5 |
| 20260508023034 | 43 | 329 | 0.0 | 0.0 | 0.00 | 0.00 | 0.08 | 86 | 1010.5 |
| 20260508022526 | 43 | 329 | 0.0 | 0.0 | 0.00 | 0.00 | 0.08 | 86 | 1010.5 |
| 20260508022026 | 43 | 329 | 0.0 | 0.0 | 0.00 | 0.00 | 0.08 | 86 | 1010.6 |
| 20260508021527 | 43 | 329 | 0.0 | 0.0 | 0.00 | 0.00 | 0.08 | 86 | 1010.6 |
| 20260508021027 | 43 | 348 | 0.0 | 0.0 | 0.00 | 0.00 | 0.08 | 86 | 1010.5 |
| 20260508020525 | 43 | 337 | 0.0 | 0.0 | 0.00 | 0.00 | 0.08 | 86 | 1010.5 |
| 20260508020025 | 43 | 254 | 0.0 | 0.0 | 0.00 | 0.00 | 0.08 | 86 | 1010.7 |
| 20260508015525 | 44 | 284 | 0.0 | 0.0 | 0.00 | 0.00 | 0.08 | 86 | 1010.7 |
| 20260508015025 | 44 | 281 | 0.0 | 0.0 | 0.00 | 0.00 | 0.08 | 85 | 1010.7 |
| 20260508014531 | 44 | 267 | 0.0 | 0.0 | 0.00 | 0.00 | 0.07 | 85 | 1010.8 |
| 20260508014025 | 44 | 288 | 0.0 | 0.0 | 0.00 | 0.00 | 0.06 | 85 | 1010.6 |
| 20260508013526 | 44 | 279 | 0.0 | 0.0 | 0.00 | 0.00 | 0.06 | 84 | 1010.6 |
| 20260508013024 | 44 | 270 | 0.0 | 0.0 | 0.00 | 0.00 | 0.06 | 84 | 1010.6 |
| 20260508012525 | 44 | 292 | 0.0 | 0.0 | 0.00 | 0.00 | 0.06 | 83 | 1010.5 |
| 20260508012028 | 44 | 242 | 0.0 | 0.0 | 0.00 | 0.00 | 0.06 | 83 | 1010.5 |
| 20260508011530 | 44 | 257 | 0.0 | 0.0 | 0.00 | 0.00 | 0.04 | 82 | 1010.5 |
| 20260508011022 | 45 | 281 | 0.0 | 0.0 | 0.00 | 0.00 | 0.02 | 80 | 1010.5 |
| 20260508010524 | 45 | 254 | 0.0 | 0.0 | 0.00 | 0.00 | 0.01 | 80 | 1010.4 |
| 20260508010030 | 46 | 281 | 0.0 | 0.0 | 0.00 | 0.00 | 0.00 | 79 | 1010.3 |
| 20260508005532 | 46 | 298 | 0.0 | 0.0 | 0.00 | 0.00 | 0.00 | 78 | 1010.2 |
| 20260508005022 | 45 | 266 | 0.0 | 0.0 | 0.00 | 0.00 | 0.00 | 77 | 1010.1 |
| 20260508004522 | 45 | 298 | 0.0 | 0.0 | 0.00 | 0.00 | 0.00 | 77 | 1009.9 |
| 20260508004022 | 45 | 298 | 0.0 | 0.0 | 0.00 | 0.00 | 0.00 | 78 | 1009.9 |
| 20260508003522 | 45 | 298 | 0.0 | 0.0 | 0.00 | 0.00 | 0.00 | 78 | 1009.7 |
| 20260508003027 | 45 | 298 | 0.0 | 0.0 | 0.00 | 0.00 | 0.00 | 77 | 1009.6 |
| 20260508002522 | 45 | 298 | 0.0 | 0.0 | 0.00 | 0.00 | 0.00 | 77 | 1009.7 |
| 20260508002022 | 45 | 298 | 0.0 | 0.0 | 0.00 | 0.00 | 0.00 | 77 | 1009.7 |
| 20260508001521 | 45 | 301 | 0.0 | 0.0 | 0.00 | 0.00 | 0.00 | 76 | 1009.6 |
| 20260508001021 | 45 | 327 | 0.0 | 0.0 | 0.00 | 0.00 | 0.00 | 75 | 1009.7 |
| 20260508000523 | 46 | 326 | 0.0 | 0.0 | 0.00 | 0.00 | 0.00 | 74 | 1009.7 |
| 20260508000021 | 46 | 279 | 0.0 | 0.0 | 0.00 | 0.00 | 0.00 | 72 | 1009.7 |
| 20260507235521 | 47 | 304 | 0.0 | 0.0 | 0.00 | 0.00 | 0.00 | 70 | 1009.8 |
| 20260507235024 | 48 | 291 | 0.0 | 0.0 | 0.00 | 0.00 | 0.00 | 69 | 1009.5 |
| 20260507234520 | 48 | 281 | 0.0 | 0.0 | 0.00 | 0.00 | 0.00 | 67 | 1009.4 |
| 20260507234020 | 49 | 270 | 0.0 | 0.0 | 0.00 | 0.00 | 0.00 | 64 | 1009.4 |
| 20260507233521 | 50 | 279 | 0.0 | 0.0 | 0.00 | 0.00 | 0.00 | 59 | 1009.2 |
| 20260507233020 | 50 | 230 | 0.0 | 0.0 | 0.00 | 0.00 | 0.00 | 58 | 1009.2 |
| 20260507232520 | 50 | 226 | 0.0 | 0.0 | 0.00 | 0.00 | 0.00 | 59 | 1009.1 |
| 20260507232019 | 50 | 273 | 0.0 | 0.0 | 0.00 | 0.00 | 0.00 | 62 | 1009.1 |
| 20260507231519 | 51 | 292 | 0.0 | 0.0 | 0.00 | 0.00 | 0.00 | 63 | 1009.0 |
| 20260507231019 | 51 | 289 | 0.0 | 0.0 | 0.00 | 0.00 | 0.00 | 62 | 1009.0 |
| 20260507230523 | 51 | 302 | 0.0 | 0.0 | 0.00 | 0.00 | 0.00 | 62 | 1009.0 |
| 20260507230019 | 51 | 273 | 0.0 | 0.0 | 0.00 | 0.00 | 0.00 | 61 | 1009.0 |
| 20260507225518 | 51 | 265 | 0.0 | 0.0 | 0.00 | 0.00 | 0.00 | 61 | 1008.9 |
| 20260507225020 | 51 | 264 | 0.0 | 0.0 | 0.00 | 0.00 | 0.00 | 60 | 1008.9 |
| 20260507224519 | 51 | 272 | 0.0 | 0.0 | 0.00 | 0.00 | 0.00 | 60 | 1008.8 |
| 20260507224018 | 51 | 266 | 0.0 | 0.0 | 0.00 | 0.00 | 0.00 | 60 | 1009.0 |
| 20260507223518 | 52 | 263 | 0.0 | 0.0 | 0.00 | 0.00 | 0.00 | 59 | 1008.9 |
| 20260507223018 | 52 | 259 | 0.0 | 0.0 | 0.00 | 0.00 | 0.00 | 58 | 1008.9 |
| 20260507222518 | 52 | 286 | 0.0 | 0.0 | 0.00 | 0.00 | 0.00 | 57 | 1009.1 |
| 20260507222017 | 52 | 269 | 0.0 | 0.0 | 0.00 | 0.00 | 0.00 | 58 | 1009.1 |
| 20260507221517 | 52 | 261 | 0.0 | 0.0 | 0.00 | 0.00 | 0.00 | 57 | 1009.0 |
| 20260507221018 | 52 | 271 | 0.0 | 0.0 | 0.00 | 0.00 | 0.00 | 59 | 1008.9 |
| 20260507220515 | 52 | 245 | 0.0 | 0.0 | 0.00 | 0.00 | 0.00 | 59 | 1008.9 |
| 20260507220016 | 52 | 261 | 0.0 | 0.0 | 0.00 | 0.00 | 0.00 | 59 | 1009.0 |
| 20260507215516 | 52 | 261 | 0.0 | 0.0 | 0.00 | 0.00 | 0.00 | 58 | 1009.1 |
| 20260507215015 | 53 | 267 | 0.0 | 0.0 | 0.00 | 0.00 | 0.00 | 57 | 1009.1 |
| 20260507214515 | 53 | 278 | 0.0 | 0.0 | 0.00 | 0.00 | 0.00 | 57 | 1009.2 |
| 20260507214015 | 54 | 265 | 0.0 | 0.0 | 0.00 | 0.00 | 0.00 | 56 | 1009.2 |
| 20260507213517 | 53 | 228 | 0.0 | 0.0 | 0.00 | 0.00 | 0.00 | 58 | 1009.2 |
| 20260507213019 | 52 | 273 | 0.0 | 0.0 | 0.00 | 0.00 | 0.00 | 58 | 1009.1 |
| 20260507212515 | 52 | 303 | 0.0 | 0.0 | 0.00 | 0.00 | 0.00 | 59 | 1009.1 |
| 20260507212015 | 52 | 331 | 0.0 | 0.0 | 0.00 | 0.00 | 0.00 | 59 | 1009.1 |
| 20260507211515 | 51 | 309 | 0.0 | 0.0 | 0.00 | 0.00 | 0.00 | 59 | 1009.0 |
| 20260507211013 | 51 | 286 | 0.0 | 0.0 | 0.00 | 0.00 | 0.00 | 60 | 1009.0 |
| 20260507210516 | 51 | 311 | 0.0 | 0.0 | 0.00 | 0.00 | 0.00 | 59 | 1009.1 |
| 20260507210013 | 51 | 281 | 0.0 | 0.0 | 0.00 | 0.00 | 0.00 | 60 | 1009.1 |
| 20260507205513 | 50 | 275 | 0.0 | 0.0 | 0.00 | 0.00 | 0.00 | 59 | 1009.1 |
| 20260507205013 | 50 | 298 | 0.0 | 0.0 | 0.00 | 0.00 | 0.00 | 59 | 1009.2 |
| 20260507204512 | 50 | 285 | 0.0 | 0.0 | 0.00 | 0.00 | 0.00 | 59 | 1009.2 |
| 20260507204012 | 50 | 311 | 0.0 | 0.0 | 0.00 | 0.00 | 0.00 | 61 | 1009.2 |
| 20260507203516 | 50 | 311 | 0.0 | 0.0 | 0.00 | 0.00 | 0.00 | 61 | 1009.2 |
| 20260507203015 | 50 | 287 | 0.0 | 0.0 | 0.00 | 0.00 | 0.00 | 61 | 1009.2 |
| 20260507202512 | 51 | 323 | 0.0 | 0.0 | 0.00 | 0.00 | 0.00 | 60 | 1009.2 |
| 20260507202012 | 51 | 316 | 0.0 | 0.0 | 0.00 | 0.00 | 0.00 | 59 | 1009.2 |
| 20260507201512 | 51 | 321 | 0.0 | 0.0 | 0.00 | 0.00 | 0.00 | 60 | 1009.2 |
| 20260507201014 | 51 | 265 | 0.0 | 0.0 | 0.00 | 0.00 | 0.00 | 59 | 1009.2 |
| 20260507200511 | 52 | 285 | 0.0 | 0.0 | 0.00 | 0.00 | 0.00 | 57 | 1009.2 |
| 20260507200022 | 53 | 288 | 0.0 | 0.0 | 0.00 | 0.00 | 0.00 | 56 | 1009.2 |
| 20260507195510 | 53 | 311 | 0.0 | 0.0 | 0.00 | 0.00 | 0.00 | 55 | 1009.3 |
| 20260507195009 | 54 | 292 | 0.0 | 0.0 | 0.00 | 0.00 | 0.00 | 55 | 1009.4 |
| 20260507194509 | 54 | 273 | 0.0 | 0.0 | 0.00 | 0.00 | 0.00 | 53 | 1009.4 |
| 20260507194009 | 55 | 277 | 0.0 | 0.0 | 0.00 | 0.00 | 0.00 | 54 | 1009.5 |
| 20260507193508 | 55 | 327 | 0.0 | 0.0 | 0.00 | 0.00 | 0.00 | 54 | 1009.6 |
| 20260507193008 | 55 | 341 | 0.0 | 0.0 | 0.00 | 0.00 | 0.00 | 54 | 1009.6 |
| 20260507192508 | 54 | 326 | 0.0 | 0.0 | 0.00 | 0.00 | 0.00 | 55 | 1009.6 |